This is the latest recevied weather packets stored in our database for station/object K9MWD. If no packets are shown the sender has not sent any weather packets the latest 10 day(s).
| Time | Temp. | Humidity | Pressure | Rain* | Wind** | Luminosity | Snow |
|---|---|---|---|---|---|---|---|
| 1788292322 | 36.11° C | 43% | 1014.7 hPa | 0 mm | - | 852 W/m² | - |
| 1788292018 | 36.11° C | 45% | 1014.6 hPa | 0 mm | - | 925 W/m² | - |
| 1788291712 | 35.56° C | 44% | 1014.8 hPa | 0 mm | - | 964 W/m² | - |
| 1788291409 | 36.11° C | 44% | 1015 hPa | 0 mm | - | 208 W/m² | - |
| 1788291108 | 36.67° C | 43% | 1015.2 hPa | 0 mm | - | 418 W/m² | - |
| 1788290803 | 35.56° C | 44% | 1015 hPa | 0 mm | - | 1048 W/m² | - |
| 1788290498 | 35.56° C | 44% | 1015.2 hPa | 0 mm | - | 287 W/m² | - |
| 1788290194 | 35.56° C | 45% | 1015.2 hPa | 0 mm | - | 509 W/m² | - |
| 1788289890 | 36.11° C | 43% | 1015.1 hPa | 0 mm | - | 330 W/m² | - |
| 1788289586 | 35.56° C | 46% | 1015.3 hPa | 0 mm | - | 989 W/m² | - |
| 1788289285 | 35.56° C | 46% | 1015.5 hPa | 0 mm | - | 458 W/m² | - |
| 1788288983 | 36.11° C | 44% | 1015.4 hPa | 0 mm | - | 305 W/m² | - |
| 1788288682 | 36.11° C | 43% | 1015.5 hPa | 0 mm | - | 270 W/m² | - |
| 1788288378 | 36.11° C | 45% | 1015.7 hPa | 0 mm | - | 247 W/m² | - |
| 1788288073 | 37.22° C | 42% | 1015.8 hPa | 0 mm | - | 296 W/m² | - |
| 1788287768 | 36.11° C | 43% | 1015.7 hPa | 0 mm | - | 1041 W/m² | - |
| 1788287463 | 37.22° C | 42% | 1015.8 hPa | 0 mm | - | 1004 W/m² | - |
| 1788287160 | 36.67° C | 43% | 1016 hPa | 0 mm | - | 994 W/m² | - |
| 1788286859 | 36.11° C | 45% | 1016.1 hPa | 0 mm | - | 981 W/m² | - |
| 1788286559 | 35.56° C | 46% | 1016.1 hPa | 0 mm | - | 1010 W/m² | - |
| 1788286258 | 35.56° C | 46% | 1016.1 hPa | 0 mm | - | 1014 W/m² | - |
| 1788285957 | 35.56° C | 46% | 1016.2 hPa | 0 mm | - | 978 W/m² | - |
| 1788285653 | 35.56° C | 45% | 1016.7 hPa | 0 mm | - | 1011 W/m² | - |
| 1788285351 | 35° C | 46% | 1016.6 hPa | 0 mm | - | 969 W/m² | - |
| 1788285045 | 35.56° C | 45% | 1016.6 hPa | 0 mm | - | 181 W/m² | - |
* Rain latest hour (hover to see other rain measurements)
** Current wind speed in m/s (hover to see current wind gust speed)